Terminal Aerodrome Forecast
Issued by NWS

Current Version | Previous Version | Text Only | Print | Product List | Glossary On
Versions: 1 2 3 4 5 6 7 8 9 10 11 12 13 14 15 16 17 18 19 20 21 22
000
FTUS42 KMLB 031120
TAFLEE
TAF
KLEE 031120Z 0312/0412 00000KT 3SM BR SCT003
      TEMPO 0312/0314 1/2SM FG BKN003
     FM031500 05004KT P6SM SCT005
     FM031700 11008KT P6SM SCT035
     FM040000 12005KT P6SM FEW035 SCT250
     FM040900 17004KT 3SM BR SCT006
      TEMPO 0409/0412 1SM BR BKN006=

USA.gov is the U.S. government's official web portal to all federal, state and local government web resources and services.